Year,Month,Day,Hour,Minute,Value (Times are PST for temperature in C)
2021,06,27,10,30,32.10
2021,06,27,10,31,32.10
2021,06,27,10,32,32.10
2021,06,27,10,33,32.10
2021,06,27,10,34,32.10
2021,06,27,10,35,32.20
2021,06,27,10,36,32.20
2021,06,27,10,37,32.30
2021,06,27,10,38,32.40
2021,06,27,10,39,32.40
2021,06,27,10,40,32.50
2021,06,27,10,41,32.60
2021,06,27,10,42,32.60
2021,06,27,10,43,32.60
2021,06,27,10,44,32.60
2021,06,27,10,45,32.60
2021,06,27,10,46,32.60
2021,06,27,10,47,32.60
2021,06,27,10,48,32.60
2021,06,27,10,49,32.60
2021,06,27,10,50,32.80
2021,06,27,10,51,32.80
2021,06,27,10,52,32.80
2021,06,27,10,53,32.80
2021,06,27,10,54,32.80
2021,06,27,10,55,32.80
2021,06,27,10,56,32.80
2021,06,27,10,57,32.80
2021,06,27,10,58,32.80
2021,06,27,10,59,32.80
2021,06,27,11,00,32.70
2021,06,27,11,01,32.60
2021,06,27,11,02,32.60
2021,06,27,11,03,32.70
2021,06,27,11,04,32.80
2021,06,27,11,05,32.80
2021,06,27,11,06,32.80
2021,06,27,11,07,32.80
2021,06,27,11,08,32.80
2021,06,27,11,09,32.80
2021,06,27,11,10,32.80
2021,06,27,11,11,32.80
2021,06,27,11,12,32.80
2021,06,27,11,13,32.80
2021,06,27,11,14,32.80
2021,06,27,11,15,32.90
2021,06,27,11,16,32.90
2021,06,27,11,17,33.00
2021,06,27,11,18,33.00
2021,06,27,11,19,33.00
2021,06,27,11,20,33.00
2021,06,27,11,21,33.00
2021,06,27,11,22,33.10
2021,06,27,11,23,33.10
2021,06,27,11,24,33.20
2021,06,27,11,25,33.30
2021,06,27,11,26,33.40
2021,06,27,11,27,33.50
2021,06,27,11,28,33.50
2021,06,27,11,29,33.50
2021,06,27,11,30,33.50
2021,06,27,11,31,33.60
2021,06,27,11,32,33.60
2021,06,27,11,33,33.50
2021,06,27,11,34,33.50
2021,06,27,11,35,33.60
2021,06,27,11,36,33.60
2021,06,27,11,37,33.60
2021,06,27,11,38,33.60
2021,06,27,11,39,33.70
2021,06,27,11,40,33.60
2021,06,27,11,41,33.60
2021,06,27,11,42,33.70
2021,06,27,11,43,33.70
2021,06,27,11,44,33.80
2021,06,27,11,45,33.80
2021,06,27,11,46,33.90
2021,06,27,11,47,34.00
2021,06,27,11,48,34.00
2021,06,27,11,49,34.00
2021,06,27,11,50,34.00
2021,06,27,11,51,34.00
2021,06,27,11,52,34.00
2021,06,27,11,53,34.00
2021,06,27,11,54,34.00
2021,06,27,11,55,34.00
2021,06,27,11,56,34.10
2021,06,27,11,57,34.10
2021,06,27,11,58,34.10
2021,06,27,11,59,34.10
2021,06,27,12,00,34.20
2021,06,27,12,01,34.20
2021,06,27,12,02,34.30
2021,06,27,12,03,34.30
2021,06,27,12,04,34.30
2021,06,27,12,05,34.40
2021,06,27,12,06,34.40
2021,06,27,12,07,34.60
2021,06,27,12,08,34.60
2021,06,27,12,09,34.60
2021,06,27,12,10,34.60
2021,06,27,12,11,34.60
2021,06,27,12,12,34.50
2021,06,27,12,13,34.60
2021,06,27,12,14,34.60
2021,06,27,12,15,34.60
2021,06,27,12,16,34.60
2021,06,27,12,17,34.70
2021,06,27,12,18,34.70
2021,06,27,12,19,34.80
2021,06,27,12,20,34.80
2021,06,27,12,21,34.90
2021,06,27,12,22,34.90
2021,06,27,12,23,34.90
2021,06,27,12,24,34.90
2021,06,27,12,25,34.90
2021,06,27,12,26,34.90
2021,06,27,12,27,34.90
2021,06,27,12,28,34.90
2021,06,27,12,29,34.90
2021,06,27,12,30,34.90
2021,06,27,12,31,34.90
2021,06,27,12,32,35.10
2021,06,27,12,33,35.10
2021,06,27,12,34,35.10
2021,06,27,12,35,35.10
2021,06,27,12,36,35.10
2021,06,27,12,37,35.10
2021,06,27,12,38,35.20
2021,06,27,12,39,35.30
2021,06,27,12,40,35.30
2021,06,27,12,41,35.30
2021,06,27,12,42,35.40
2021,06,27,12,43,35.30
2021,06,27,12,44,35.30
2021,06,27,12,45,35.30
2021,06,27,12,46,35.20
2021,06,27,12,47,35.20
2021,06,27,12,48,35.20
2021,06,27,12,49,35.10
2021,06,27,12,50,35.10
2021,06,27,12,51,35.20
2021,06,27,12,52,35.20
2021,06,27,12,53,35.20
2021,06,27,12,54,35.20
2021,06,27,12,55,35.20
2021,06,27,12,56,35.20
2021,06,27,12,57,35.30
2021,06,27,12,58,35.30
2021,06,27,12,59,35.50
2021,06,27,13,00,35.50
2021,06,27,13,01,35.50
2021,06,27,13,02,35.60
2021,06,27,13,03,35.50
2021,06,27,13,04,35.50
2021,06,27,13,05,35.50
2021,06,27,13,06,35.50
2021,06,27,13,07,35.30
2021,06,27,13,08,35.30
2021,06,27,13,09,35.20
2021,06,27,13,10,35.10
2021,06,27,13,11,35.10
2021,06,27,13,12,35.10
2021,06,27,13,13,35.10
2021,06,27,13,14,35.10
2021,06,27,13,15,35.10
2021,06,27,13,16,35.20
2021,06,27,13,17,35.20
2021,06,27,13,18,35.30
2021,06,27,13,19,35.30
2021,06,27,13,20,35.30
2021,06,27,13,21,35.30
2021,06,27,13,22,35.30
2021,06,27,13,23,35.30
2021,06,27,13,24,35.50
2021,06,27,13,25,35.50
2021,06,27,13,26,35.50
2021,06,27,13,27,35.50
2021,06,27,13,28,35.50
2021,06,27,13,29,35.50
2021,06,27,13,30,35.50
2021,06,27,13,31,35.50
2021,06,27,13,32,35.50
2021,06,27,13,33,35.60
2021,06,27,13,34,35.60
2021,06,27,13,35,35.60
2021,06,27,13,36,35.70
2021,06,27,13,37,35.80
2021,06,27,13,38,35.90
2021,06,27,13,39,35.90
2021,06,27,13,40,36.00
2021,06,27,13,41,36.00
2021,06,27,13,42,36.00
2021,06,27,13,43,36.00
2021,06,27,13,44,36.00
2021,06,27,13,45,36.00
2021,06,27,13,46,36.20
2021,06,27,13,47,36.20
2021,06,27,13,48,36.20
2021,06,27,13,49,36.30
2021,06,27,13,50,36.20
2021,06,27,13,51,36.20
2021,06,27,13,52,36.10
2021,06,27,13,53,36.00
2021,06,27,13,54,36.00
2021,06,27,13,55,36.00
2021,06,27,13,56,36.00
2021,06,27,13,57,35.90
2021,06,27,13,58,35.90
2021,06,27,13,59,35.90
2021,06,27,14,00,35.90
2021,06,27,14,01,36.00
2021,06,27,14,02,36.10
2021,06,27,14,03,36.20
2021,06,27,14,04,36.20
2021,06,27,14,05,36.30
2021,06,27,14,06,36.20
2021,06,27,14,07,36.20
2021,06,27,14,08,36.20
2021,06,27,14,09,36.00
2021,06,27,14,10,36.00
2021,06,27,14,11,36.00
2021,06,27,14,12,36.00
2021,06,27,14,13,36.20
2021,06,27,14,14,36.20
2021,06,27,14,15,36.20
2021,06,27,14,16,36.20
2021,06,27,14,17,36.20
2021,06,27,14,18,36.30
2021,06,27,14,19,36.30
2021,06,27,14,20,36.30
2021,06,27,14,21,36.30
2021,06,27,14,22,36.30
2021,06,27,14,23,36.30
2021,06,27,14,24,36.30
2021,06,27,14,25,36.30
2021,06,27,14,26,36.30
2021,06,27,14,27,36.30
2021,06,27,14,28,36.30
2021,06,27,14,29,36.40
2021,06,27,14,30,36.40
2021,06,27,14,31,36.60
2021,06,27,14,32,36.50
2021,06,27,14,33,36.40
2021,06,27,14,34,36.40
2021,06,27,14,35,36.30
2021,06,27,14,36,36.30
2021,06,27,14,37,36.30
2021,06,27,14,38,36.30
2021,06,27,14,39,36.40
2021,06,27,14,40,36.40
2021,06,27,14,41,36.40
2021,06,27,14,42,36.50
2021,06,27,14,43,36.60
2021,06,27,14,44,36.60
2021,06,27,14,45,36.60
2021,06,27,14,46,36.60
2021,06,27,14,47,36.60
2021,06,27,14,48,36.70
2021,06,27,14,49,36.70
2021,06,27,14,50,36.70
2021,06,27,14,51,36.70
2021,06,27,14,52,36.70
2021,06,27,14,53,36.80
2021,06,27,14,54,36.90
2021,06,27,14,55,36.90
2021,06,27,14,56,37.00
2021,06,27,14,57,37.10
2021,06,27,14,58,37.10
2021,06,27,14,59,37.20
2021,06,27,15,00,37.30
2021,06,27,15,01,37.30
2021,06,27,15,02,37.30
2021,06,27,15,03,37.40
2021,06,27,15,04,37.40
2021,06,27,15,05,37.40
2021,06,27,15,06,37.40
2021,06,27,15,07,37.40
2021,06,27,15,08,37.40
2021,06,27,15,09,37.40
2021,06,27,15,10,37.40
2021,06,27,15,11,37.40
2021,06,27,15,12,37.40
2021,06,27,15,13,37.40
2021,06,27,15,14,37.40
2021,06,27,15,15,37.60
2021,06,27,15,16,37.60
2021,06,27,15,17,37.60
2021,06,27,15,18,37.60
2021,06,27,15,19,37.70
2021,06,27,15,20,37.70
2021,06,27,15,21,37.70
2021,06,27,15,22,37.70
2021,06,27,15,23,37.70
2021,06,27,15,24,37.60
2021,06,27,15,25,37.50
2021,06,27,15,26,37.40
2021,06,27,15,27,37.40
2021,06,27,15,28,37.30
2021,06,27,15,29,37.30
2021,06,27,15,30,37.30
2021,06,27,15,31,37.30
2021,06,27,15,32,37.30
2021,06,27,15,33,37.30
2021,06,27,15,34,37.30
2021,06,27,15,35,37.40
2021,06,27,15,36,37.40
2021,06,27,15,37,37.40
2021,06,27,15,38,37.50
2021,06,27,15,39,37.60
2021,06,27,15,40,37.40
2021,06,27,15,41,37.40
2021,06,27,15,42,37.40
2021,06,27,15,43,37.40
2021,06,27,15,44,37.50
2021,06,27,15,45,37.60
2021,06,27,15,46,37.60
2021,06,27,15,47,37.70
2021,06,27,15,48,37.70
2021,06,27,15,49,37.60
2021,06,27,15,50,37.60
2021,06,27,15,51,37.60
2021,06,27,15,52,37.60
2021,06,27,15,53,37.40
2021,06,27,15,54,37.40
2021,06,27,15,55,37.40
2021,06,27,15,56,37.40
2021,06,27,15,57,37.40
2021,06,27,15,58,37.30
2021,06,27,15,59,37.30
2021,06,27,16,00,37.40
2021,06,27,16,01,37.40
2021,06,27,16,02,37.40
2021,06,27,16,03,37.40
2021,06,27,16,04,37.40
2021,06,27,16,05,37.40
2021,06,27,16,06,37.30
2021,06,27,16,07,37.30
2021,06,27,16,08,37.30
2021,06,27,16,09,37.30
2021,06,27,16,10,37.20
2021,06,27,16,11,37.20
2021,06,27,16,12,37.20
2021,06,27,16,13,37.20
2021,06,27,16,14,37.20
2021,06,27,16,15,37.10
2021,06,27,16,16,37.10
2021,06,27,16,17,37.10
2021,06,27,16,18,37.00
2021,06,27,16,19,36.90
2021,06,27,16,20,36.90
2021,06,27,16,21,37.00
2021,06,27,16,22,37.10
2021,06,27,16,23,37.00
2021,06,27,16,24,36.90
2021,06,27,16,25,36.90
2021,06,27,16,26,36.90
2021,06,27,16,27,36.90
2021,06,27,16,28,36.90
2021,06,27,16,29,36.90
2021,06,27,16,30,36.90
2021,06,27,16,31,36.90
2021,06,27,16,32,36.90
2021,06,27,16,33,36.90
2021,06,27,16,34,36.90
2021,06,27,16,35,36.90
2021,06,27,16,36,36.90
2021,06,27,16,37,36.80
2021,06,27,16,38,36.80
2021,06,27,16,39,36.80
2021,06,27,16,40,36.80
2021,06,27,16,41,36.80
2021,06,27,16,42,36.90
2021,06,27,16,43,36.90
2021,06,27,16,44,36.90
2021,06,27,16,45,37.00
2021,06,27,16,46,37.10
2021,06,27,16,47,37.10
2021,06,27,16,48,37.00
2021,06,27,16,49,36.90
2021,06,27,16,50,36.80
2021,06,27,16,51,36.80
2021,06,27,16,52,36.80
2021,06,27,16,53,36.80
2021,06,27,16,54,36.70
2021,06,27,16,55,36.70
2021,06,27,16,56,36.70
2021,06,27,16,57,36.70
2021,06,27,16,58,36.60
2021,06,27,16,59,36.60
2021,06,27,17,00,36.60
2021,06,27,17,01,36.60
2021,06,27,17,02,36.60
2021,06,27,17,03,36.60
2021,06,27,17,04,36.60
2021,06,27,17,05,36.70
2021,06,27,17,06,36.70
2021,06,27,17,07,36.70
2021,06,27,17,08,36.80
2021,06,27,17,09,36.80
2021,06,27,17,10,36.80
2021,06,27,17,11,36.80
2021,06,27,17,12,36.80
2021,06,27,17,13,36.80
2021,06,27,17,14,36.70
2021,06,27,17,15,36.70
2021,06,27,17,16,36.70
2021,06,27,17,17,36.70
2021,06,27,17,18,36.70
2021,06,27,17,19,36.70
2021,06,27,17,20,36.70
2021,06,27,17,21,36.70
2021,06,27,17,22,36.70
2021,06,27,17,23,36.80
2021,06,27,17,24,36.80
2021,06,27,17,25,36.80
2021,06,27,17,26,36.80
2021,06,27,17,27,36.80
2021,06,27,17,28,36.80
2021,06,27,17,29,36.90
2021,06,27,17,30,36.90
2021,06,27,17,31,37.00
2021,06,27,17,32,37.10
2021,06,27,17,33,37.10
2021,06,27,17,34,37.20
2021,06,27,17,35,37.20
2021,06,27,17,36,37.20
2021,06,27,17,37,37.10
2021,06,27,17,38,37.10
2021,06,27,17,39,37.10
2021,06,27,17,40,37.10
2021,06,27,17,41,37.10
2021,06,27,17,42,37.10
2021,06,27,17,43,37.10
2021,06,27,17,44,37.10
2021,06,27,17,45,37.10
2021,06,27,17,46,37.10
2021,06,27,17,47,37.10
2021,06,27,17,48,37.10
2021,06,27,17,49,37.10
2021,06,27,17,50,37.00
2021,06,27,17,51,37.00
2021,06,27,17,52,37.10
2021,06,27,17,53,37.10
2021,06,27,17,54,37.10
2021,06,27,17,55,37.10
2021,06,27,17,56,37.00
2021,06,27,17,57,36.90
2021,06,27,17,58,36.90
2021,06,27,17,59,36.90
2021,06,27,18,00,36.90
2021,06,27,18,01,36.90
2021,06,27,18,02,36.90
2021,06,27,18,03,36.90
2021,06,27,18,04,36.90
2021,06,27,18,05,36.90
2021,06,27,18,06,36.90
2021,06,27,18,07,36.90
2021,06,27,18,08,36.90
2021,06,27,18,09,36.90
2021,06,27,18,10,36.90
2021,06,27,18,11,36.90
2021,06,27,18,12,36.90
2021,06,27,18,13,36.90
2021,06,27,18,14,36.80
2021,06,27,18,15,36.80
2021,06,27,18,16,36.80
2021,06,27,18,17,36.80
2021,06,27,18,18,36.80
2021,06,27,18,19,36.80
2021,06,27,18,20,36.80
2021,06,27,18,21,36.80
2021,06,27,18,22,36.80
2021,06,27,18,23,36.80
2021,06,27,18,24,36.80
2021,06,27,18,25,36.80
2021,06,27,18,26,36.80
2021,06,27,18,27,36.80
2021,06,27,18,28,36.80
2021,06,27,18,29,36.80
2021,06,27,18,30,36.90
2021,06,27,18,31,36.90
2021,06,27,18,32,36.90
2021,06,27,18,33,36.90
2021,06,27,18,34,36.80
2021,06,27,18,35,36.80
2021,06,27,18,36,36.80
2021,06,27,18,37,36.80
2021,06,27,18,38,36.80
2021,06,27,18,39,36.80
2021,06,27,18,40,36.80
2021,06,27,18,41,36.80
2021,06,27,18,42,36.80
2021,06,27,18,43,36.80
2021,06,27,18,44,36.80
2021,06,27,18,45,36.80
2021,06,27,18,46,36.80
2021,06,27,18,47,36.80
2021,06,27,18,48,36.80
2021,06,27,18,49,36.80
2021,06,27,18,50,36.80
2021,06,27,18,51,36.70
2021,06,27,18,52,36.70
2021,06,27,18,53,36.70
2021,06,27,18,54,36.70
2021,06,27,18,55,36.70
2021,06,27,18,56,36.70
2021,06,27,18,57,36.70
2021,06,27,18,58,36.70
2021,06,27,18,59,36.70
2021,06,27,19,00,36.70
2021,06,27,19,01,36.70
2021,06,27,19,02,36.70
2021,06,27,19,03,36.60
2021,06,27,19,04,36.60
2021,06,27,19,05,36.60
2021,06,27,19,06,36.60
2021,06,27,19,07,36.50
2021,06,27,19,08,36.40
2021,06,27,19,09,36.40
2021,06,27,19,10,36.40
2021,06,27,19,11,36.40
2021,06,27,19,12,36.40
2021,06,27,19,13,36.40
2021,06,27,19,14,36.40
2021,06,27,19,15,36.40
2021,06,27,19,16,36.40
2021,06,27,19,17,36.40
2021,06,27,19,18,36.50
2021,06,27,19,19,36.60
2021,06,27,19,20,36.60
2021,06,27,19,21,36.60
2021,06,27,19,22,36.60
2021,06,27,19,23,36.60
2021,06,27,19,24,36.60
2021,06,27,19,25,36.60
2021,06,27,19,26,36.60
2021,06,27,19,27,36.60
2021,06,27,19,28,36.60
2021,06,27,19,29,36.60
2021,06,27,19,30,36.60
2021,06,27,19,31,36.60
2021,06,27,19,32,36.60
2021,06,27,19,33,36.60
2021,06,27,19,34,36.60
2021,06,27,19,35,36.60
